Wetbulb
64.58 62.37 62.92 59.03 50.89 50.52 47.53 49.06 53.31 53.30 54.57 57.64 58.97 59.17 59.62 61.87 60.35 57.96 67.29 70.41 74.68 72.19 73.11 74.59 75.67 75.24 75.64 76.59 76.86 76.80 76.98 76.85 76.99 76.71 76.41 75.83 75.29 74.57 74.02 73.15 72.24 71.55 69.43 68.38 67.56 66.61 66.17 66.34 66.32
63.29 60.72 61.39 55.20 48.53 45.58 47.44 51.66 51.99 54.39 58.26 60.51 61.20 60.87 60.92 60.05 65.88 65.44 66.31 70.63 75.02 72.57 72.51 73.31 75.67 75.32 75.24 76.07 76.28 76.29 76.47 76.58 76.73 76.40 75.73 75.31 74.81 74.19 73.32 72.10 71.29 70.51 68.80 67.87 66.87 66.29 66.64 66.98 67.04
65.70 66.92 54.80 50.40 48.51 46.25 47.67 53.16 53.70 56.63 60.50 60.97 60.38 62.74 62.46 62.30 66.57 66.82 69.96 73.06 75.02 73.17 71.56 73.59 75.72 75.42 75.19 75.24 75.55 75.64 75.89 76.07 76.22 75.93 75.53 74.94 74.42 73.87 72.88 71.90 71.22 69.68 68.27 67.69 67.13 67.38 67.83 67.65 67.68
61.95 60.36 54.67 48.00 47.10 50.11 51.51 54.16 55.98 57.29 61.76 62.22 61.64 59.94 64.18 67.77 67.79 68.83 69.83 72.73 74.39 73.66 72.10 75.05 75.34 75.52 75.29 74.92 74.69 74.83 75.20 75.32 75.40 75.18 74.84 74.41 73.75 73.13 72.38 71.71 71.11 70.35 68.64 68.35 68.58 69.16 68.65 68.14 68.59
62.64 56.75 48.98 46.84 47.32 50.59 53.72 55.28 55.90 58.06 59.78 60.35 61.33 59.65 62.05 66.89 70.17 69.27 69.89 71.71 72.67 73.43 73.08 74.34 75.24 75.31 75.47 75.42 74.69 74.30 74.17 74.31 74.43 74.44 74.24 73.75 73.32 72.68 71.91 71.29 70.89 70.57 70.50 69.68 69.65 70.02 69.86 69.89 69.47
55.61 54.36 46.68 45.38 48.18 51.27 53.52 55.48 55.60 57.25 58.62 60.33 60.12 60.53 62.40 67.60 69.28 69.08 69.93 71.06 72.08 72.61 73.60 74.55 74.99 75.09 74.99 74.99 74.67 74.04 73.97 73.82 73.69 73.72 73.82 73.37 72.88 72.26 71.59 71.09 70.95 70.78 70.85 71.03 70.84 70.59 70.67 70.61 70.49
56.33 53.05 48.12 47.66 47.31 48.89 52.29 56.43 54.58 54.82 55.82 58.01 61.16 58.67 62.81 65.87 69.26 69.18 69.17 69.96 71.08 72.64 74.72 74.17 73.58 74.40 74.99 74.54 74.33 74.01 73.63 73.46 73.33 73.16 72.99 72.87 72.50 71.91 71.32 71.05 70.92 70.76 70.98 71.19 71.09 71.13 71.14 71.02 71.00
58.32 55.28 50.64 50.76 49.54 49.60 53.90 54.83 55.98 55.03 54.79 60.51 62.04 58.63 60.74 67.23 69.29 68.52 67.67 68.03 69.70 71.47 74.32 74.97 74.03 72.88 72.45 72.79 74.29 73.83 73.46 73.28 72.88 72.71 72.49 72.37 72.16 71.84 71.32 70.51 70.63 71.00 71.27 71.44 71.34 71.44 71.54 71.67 71.57
57.72 51.70 49.51 50.33 50.53 51.63 55.54 53.65 56.41 57.89 55.87 57.60 59.85 61.64 65.18 67.65 67.86 67.15 66.16 66.51 67.75 69.74 71.07 75.35 74.81 73.18 71.47 71.24 72.76 73.78 73.74 73.31 72.81 72.57 72.27 71.25 69.81 69.55 69.25 69.80 69.65 71.20 71.30 71.62 71.62 71.74 71.81 71.74 71.66
52.08 49.98 51.05 54.73 54.97 53.81 55.25 54.79 54.79 54.71 54.65 56.24 58.20 63.10 65.70 66.95 66.36 65.26 64.35 64.81 66.72 68.46 69.98 73.67 74.84 73.07 71.55 70.59 71.52 72.53 72.49 72.16 71.69 70.61 70.41 70.02 68.85 67.84 67.88 69.00 69.99 70.78 71.52 71.64 71.81 72.03 71.83 71.22 69.13
52.53 49.58 53.87 55.25 56.65 57.12 55.74 55.54 56.72 54.01 52.73 55.38 56.95 61.31 63.87 66.18 66.61 66.35 64.87 65.47 66.62 68.88 70.18 72.15 74.81 74.33 72.61 71.86 72.39 72.24 70.95 70.76 70.69 70.26 69.45 69.55 68.49 67.71 67.82 66.77 67.40 69.50 70.49 69.21 70.27 70.24 69.75 68.62 68.65
48.79 52.61 54.16 55.28 56.80 56.36 55.61 57.63 56.00 55.63 54.74 57.44 58.78 62.08 63.71 63.93 66.72 66.34 65.74 66.21 67.20 68.25 67.71 71.05 75.50 75.73 74.94 73.52 73.67 73.17 72.42 71.45 70.68 70.21 69.39 68.77 67.93 67.08 67.22 67.01 67.63 67.22 67.75 67.15 67.49 67.88 68.31 68.58 69.15
48.16 50.24 52.93 54.33 54.89 55.19 56.54 55.52 55.75 55.79 57.55 58.67 58.76 59.23 62.61 63.69 66.79 67.16 67.92 68.88 68.83 69.41 69.71 71.51 75.61 75.64 76.74 77.47 75.92 73.89 73.05 72.53 71.68 71.04 70.17 68.99 68.91 67.48 67.53 68.34 68.08 67.20 67.60 67.19 66.90 67.98 68.51 68.93 69.14
49.82 49.85 50.27 52.21 53.39 54.37 53.36 54.29 56.08 57.50 59.18 58.22 58.36 58.61 62.49 62.86 63.75 65.76 67.15 68.25 72.11 71.12 75.75 73.00 75.34 76.74 76.80 75.96 76.72 78.01 75.24 73.97 73.09 71.97 71.61 70.60 69.20 69.27 68.78 67.99 68.12 69.04 67.90 68.14 67.25 67.81 68.80 69.35 69.85
49.31 46.45 48.74 49.71 50.58 51.29 53.98 50.84 52.40 57.44 58.95 58.47 58.88 58.39 59.28 63.40 63.77 63.60 65.95 68.07 69.68 69.56 71.84 72.91 74.36 77.53 76.47 76.03 76.40 75.38 75.63 74.35 74.39 73.33 74.16 71.59 71.10 70.59 68.96 69.23 67.95 67.84 69.45 67.96 68.55 67.75 69.26 69.52 70.31
44.02 45.14 42.46 47.96 49.40 50.57 50.24 46.16 52.65 55.69 56.52 56.86 58.26 59.15 59.41 60.47 60.85 63.31 65.96 69.40 71.43 71.14 71.66 74.01 69.99 75.65 76.93 76.19 75.65 75.52 74.11 74.50 74.14 73.71 74.64 74.07 72.00 70.99 71.88 69.60 69.22 69.72 68.54 69.83 68.20 69.07 67.94 68.38 68.07
42.99 38.03 40.41 43.22 49.08 48.85 48.56 46.71 51.95 54.77 54.75 55.39 57.13 58.09 59.60 60.19 61.99 63.28 64.85 66.58 69.00 69.60 70.87 71.68 72.56 72.82 76.03 76.62 75.30 75.43 75.05 74.96 73.88 74.57 73.61 75.27 73.36 72.22 71.19 71.31 70.77 70.62 69.15 67.70 68.49 68.19 67.46 67.42 67.74
38.86 39.81 41.25 40.89 44.98 46.69 46.74 47.42 51.10 53.18 52.87 54.04 55.90 57.41 58.48 60.31 60.87 64.23 66.63 67.18 69.00 72.18 73.76 73.49 73.55 74.71 76.45 74.56 74.15 72.70 72.36 72.74 73.47 72.88 73.98 75.38 73.83 73.28 72.04 72.15 70.35 71.72 68.84 68.25 68.55 67.07 67.88 67.24 67.15
43.54 41.91 40.85 43.42 45.84 44.77 44.83 47.11 49.39 52.26 52.60 52.49 54.65 56.61 57.20 58.02 61.16 64.11 64.39 67.57 66.40 70.93 72.72 72.32 72.26 73.09 74.80 73.64 70.71 69.38 69.23 69.98 71.82 72.80 74.59 75.46 74.16 73.18 72.64 70.85 72.12 70.79 69.17 68.18 68.96 68.78 67.74 66.16 66.04
42.69 40.58 40.07 42.98 44.92 44.66 44.42 44.27 48.15 51.26 51.99 53.64 54.89 55.13 56.27 58.58 60.79 61.49 63.62 67.12 69.92 70.84 71.09 71.36 72.43 73.25 73.36 71.72 70.48 71.62 70.86 69.52 71.21 73.39 74.41 75.33 74.46 73.27 72.79 71.61 70.98 70.58 69.95 69.22 70.08 68.27 65.37 65.32 67.57
41.47 40.07 40.17 39.84 42.98 44.08 42.89 41.86 45.70 49.02 52.01 53.29 54.38 56.09 57.23 57.30 58.06 60.47 63.59 66.54 69.72 69.38 70.00 70.74 71.04 71.49 72.22 70.75 70.95 71.69 71.43 73.85 74.32 73.34 73.40 74.15 74.03 73.47 72.10 71.44 70.90 71.12 69.79 68.26 69.27 67.71 66.42 63.77 67.76
37.35 42.41 41.58 41.10 39.42 34.66 42.70 34.44 43.14 46.78 48.88 51.54 52.77 54.30 55.95 57.19 57.98 58.34 60.99 63.73 67.18 68.42 69.98 72.05 71.26 70.57 70.90 72.34 71.13 70.13 68.73 68.27 71.37 73.26 72.94 73.06 73.47 72.87 72.18 71.49 71.34 71.95 69.43 69.61 68.03 67.97 66.22 67.00 65.18
40.05 43.64 42.17 41.13 39.11 38.29 38.22 35.67 39.78 44.84 45.15 49.03 52.65 54.25 55.71 57.04 57.92 57.33 57.95 60.34 63.85 65.16 65.51 67.73 70.46 71.05 70.74 71.15 71.26 69.51 70.86 71.12 74.15 74.01 73.70 72.09 73.15 71.91 71.42 70.89 70.93 70.29 69.48 69.76 67.49 67.76 68.20 68.38 65.72
45.07 42.15 41.70 40.92 39.21 32.27 36.46 36.55 37.47 41.16 44.48 47.47 51.57 54.23 55.19 56.26 57.27 58.85 60.20 60.16 59.89 62.34 64.38 67.21 67.66 68.03 70.61 71.45 72.89 71.98 71.98 71.61 71.34 72.33 70.83 69.78 70.26 69.67 69.84 69.83 69.86 70.03 70.03 70.58 69.12 69.56 68.32 67.16 66.03
43.24 38.80 31.05 29.52 30.56 29.92 38.52 36.25 39.41 44.49 46.08 47.88 49.85 52.69 54.58 56.19 58.19 58.89 59.17 59.55 60.24 60.70 61.23 62.51 67.55 68.09 71.11 70.37 72.21 70.83 73.04 71.98 74.34 70.96 69.47 68.80 68.13 68.15 68.91 69.35 69.44 69.85 70.41 70.95 69.97 68.51 67.69 67.43 66.32
38.95 35.43 29.80 23.33 25.96 30.40 37.89 32.54 37.80 45.76 47.83 50.10 51.38 52.73 54.79 56.34 57.16 58.50 59.65 61.31 60.19 61.93 63.34 65.06 66.67 68.43 69.94 69.44 69.65 71.96 71.90 72.64 72.21 70.39 69.09 68.62 67.95 68.46 70.26 69.88 70.82 71.10 70.60 69.58 69.39 68.66 68.45 67.80 66.47
39.62 35.61 38.76 33.16 35.40 30.34 34.23 37.56 42.03 45.28 46.10 47.84 50.26 52.08 54.26 55.42 56.57 58.83 60.46 60.48 61.21 62.99 65.49 65.80 66.56 67.32 68.19 69.92 71.19 72.28 72.92 73.52 71.67 71.17 70.57 70.14 70.23 70.39 70.45 71.22 70.55 70.12 69.60 68.97 69.30 68.34 66.95 66.95 66.50
41.47 42.79 34.78 34.89 25.15 23.87 31.33 33.15 35.16 41.44 44.72 46.68 49.11 51.72 53.38 56.53 57.43 59.88 62.29 64.20 65.90 68.02 66.52 67.10 68.46 70.00 71.55 71.80 72.66 72.85 73.59 74.26 72.85 72.65 71.44 70.97 71.53 70.80 71.15 70.38 70.14 69.33 68.84 68.79 68.23 67.16 67.23 66.15 66.00
39.25 37.77 37.87 36.52 33.64 26.60 26.45 32.01 43.87 43.19 43.66 42.93 48.41 51.73 54.90 55.50 56.15 59.91 63.93 65.54 65.91 69.17 70.13 71.03 70.49 71.43 71.12 71.17 71.73 72.43 72.84 73.06 72.97 71.89 70.85 70.90 71.25 70.53 70.06 69.39 67.99 67.09 67.33 68.25 67.38 66.63 66.50 65.13 64.79
41.76 38.88 37.95 31.65 29.92 33.75 32.90 32.75 45.29 43.88 42.37 42.99 42.85 52.21 53.66 56.74 61.97 62.79 64.06 66.90 67.11 67.44 69.36 70.75 71.13 69.59 70.21 71.87 72.08 72.18 71.49 71.49 70.68 69.68 69.24 70.39 69.50 69.69 68.99 68.67 67.56 67.46 66.96 66.83 66.55 65.65 65.60 64.70 63.95
MSLP
1009.14 1008.69 1007.90 1006.39 1005.78 1003.51 1001.24 999.40 997.52 995.36 994.23 994.14 994.67 995.23 995.59 996.35 997.61 997.70 997.98 998.99 1000.77 1002.64 1003.78 1005.01 1005.78 1006.51 1007.24 1007.91 1008.44 1008.94 1009.24 1009.62 1010.04 1010.25 1010.56 1010.99 1011.26 1011.39 1011.91 1012.16 1012.47 1012.62 1012.70 1012.83 1013.09 1013.31 1013.25 1013.46 1013.60
1008.36 1007.88 1007.13 1005.78 1004.46 1002.07 999.76 998.13 996.33 994.86 994.10 994.51 995.45 996.08 996.34 996.78 997.27 998.57 998.66 999.51 1001.14 1002.69 1003.73 1004.87 1005.77 1006.27 1007.00 1007.83 1008.67 1009.13 1009.48 1009.84 1010.08 1010.32 1010.56 1011.00 1011.45 1011.57 1012.00 1012.29 1012.52 1012.74 1012.93 1012.97 1013.13 1013.35 1013.42 1013.56 1013.71
1008.69 1007.36 1006.36 1004.86 1003.30 1001.29 998.85 996.20 995.18 994.35 994.64 994.99 995.76 996.53 996.57 996.77 997.42 998.36 999.14 999.90 1001.39 1002.89 1003.72 1004.60 1005.65 1006.41 1006.72 1007.40 1008.30 1008.88 1009.52 1009.79 1010.20 1010.49 1010.73 1011.10 1011.46 1011.76 1012.07 1012.39 1012.68 1012.73 1012.94 1013.14 1013.28 1013.45 1013.55 1013.72 1013.75
1007.42 1006.59 1006.08 1004.04 1002.08 1000.26 998.68 996.79 995.31 994.34 994.95 995.62 995.87 996.14 996.41 996.90 997.25 998.28 999.06 1000.07 1001.45 1002.73 1003.67 1004.61 1005.44 1006.33 1006.90 1007.54 1008.08 1008.83 1009.43 1009.71 1010.09 1010.59 1010.74 1011.03 1011.42 1011.71 1012.03 1012.29 1012.51 1012.68 1012.95 1013.13 1013.28 1013.55 1013.54 1013.72 1013.76
1007.59 1006.24 1004.83 1003.38 1001.77 1000.20 998.33 996.85 995.82 995.11 994.94 995.58 995.87 995.92 996.42 996.92 997.60 998.47 999.12 1000.23 1001.06 1002.11 1003.48 1004.73 1005.63 1006.23 1006.95 1007.36 1007.96 1008.63 1009.16 1009.75 1009.95 1010.28 1010.70 1010.98 1011.41 1011.82 1011.92 1012.23 1012.39 1012.59 1012.85 1012.98 1013.20 1013.48 1013.69 1013.69 1013.71
1006.79 1006.07 1004.80 1002.86 1001.17 999.70 998.22 997.23 996.21 995.70 995.88 995.69 995.61 995.96 996.09 996.63 998.04 998.90 999.13 1000.06 1000.82 1001.76 1002.96 1004.32 1005.44 1006.24 1006.86 1007.30 1007.77 1008.46 1009.01 1009.52 1009.90 1010.26 1010.69 1010.89 1011.21 1011.46 1011.75 1012.04 1012.16 1012.34 1012.75 1012.90 1013.17 1013.27 1013.49 1013.59 1013.56
1005.92 1005.34 1004.12 1002.54 1001.24 999.84 998.12 996.83 996.35 996.03 996.18 996.22 996.14 995.77 996.05 996.36 997.40 998.46 999.22 999.58 1000.20 1001.47 1002.75 1004.21 1005.13 1006.07 1006.83 1007.30 1007.75 1008.24 1008.77 1009.24 1009.64 1010.05 1010.49 1010.78 1011.11 1011.26 1011.46 1011.78 1011.96 1012.09 1012.43 1012.73 1013.06 1013.07 1013.14 1013.33 1013.54
1005.62 1005.31 1003.91 1002.78 1001.42 999.38 998.30 997.32 996.72 996.52 996.23 996.09 995.83 995.68 996.06 996.46 997.15 997.71 998.50 998.91 999.55 1000.60 1002.14 1003.76 1004.85 1005.60 1006.33 1007.16 1007.78 1008.13 1008.60 1009.10 1009.32 1009.79 1010.13 1010.59 1010.89 1011.09 1011.24 1011.58 1011.86 1012.01 1012.16 1012.45 1012.71 1012.85 1013.01 1013.18 1013.28
1005.52 1004.52 1002.99 1002.12 1001.05 999.71 998.68 997.77 996.84 996.57 996.58 996.35 995.84 995.70 996.26 995.80 996.44 997.58 998.20 998.19 998.59 999.47 1000.85 1002.58 1004.13 1005.21 1005.82 1006.37 1007.23 1007.99 1008.47 1008.81 1009.20 1009.46 1009.75 1010.20 1010.45 1010.79 1011.03 1011.32 1011.43 1011.77 1011.94 1012.20 1012.40 1012.59 1012.87 1013.05 1013.15
1005.52 1003.78 1001.99 1001.43 1000.33 999.42 998.66 998.18 997.48 997.09 996.74 996.31 995.91 995.85 996.46 996.58 997.33 997.51 997.85 997.71 997.85 998.83 1000.13 1001.45 1003.17 1004.28 1005.18 1005.43 1006.19 1007.36 1007.86 1008.23 1008.52 1008.81 1009.26 1009.80 1010.07 1010.16 1010.31 1010.64 1011.11 1011.40 1011.78 1012.11 1012.32 1012.42 1012.66 1012.91 1012.86
1004.53 1002.27 1002.11 1000.93 1000.16 999.63 998.88 998.03 997.77 997.54 997.02 996.42 996.08 996.20 996.63 996.93 997.36 997.19 997.44 997.56 997.50 998.18 999.16 1000.51 1002.50 1003.74 1004.32 1004.79 1005.45 1006.27 1006.83 1007.44 1007.87 1008.20 1008.63 1009.19 1009.50 1009.56 1009.61 1009.91 1010.42 1011.00 1011.40 1011.67 1012.05 1012.26 1012.36 1012.39 1012.47
1003.36 1002.22 1001.96 1001.02 1000.44 999.93 998.98 998.48 997.81 998.06 997.60 996.94 996.43 996.27 996.46 996.90 997.12 996.94 996.88 997.01 997.32 997.60 999.13 1001.80 1003.96 1002.79 1003.55 1004.01 1004.62 1005.42 1005.97 1006.62 1007.20 1007.57 1008.05 1008.53 1009.16 1009.09 1009.10 1009.30 1009.62 1010.30 1010.60 1011.05 1011.27 1011.55 1011.69 1011.80 1011.71
1002.26 1001.62 1001.30 1000.75 1000.33 1000.11 999.72 998.84 998.38 998.33 998.34 997.71 997.11 996.22 996.19 996.92 997.12 996.98 996.51 996.32 997.68 998.47 999.81 1000.96 1002.45 1002.60 1002.86 1003.26 1003.83 1004.25 1004.91 1005.41 1005.89 1006.36 1006.97 1007.54 1008.03 1008.28 1008.61 1008.63 1008.85 1009.39 1009.79 1010.27 1010.71 1010.79 1010.94 1011.20 1011.16
1002.76 1001.92 1000.96 1000.22 999.68 999.44 999.40 998.88 998.87 997.71 998.35 998.29 997.69 996.79 996.78 998.06 997.68 997.42 997.44 998.01 998.23 998.81 999.34 999.85 1001.09 1001.75 1002.46 1003.10 1003.61 1003.93 1004.07 1004.32 1004.89 1005.32 1005.67 1006.41 1006.85 1007.33 1007.76 1008.21 1008.36 1008.47 1008.78 1009.05 1009.79 1009.86 1010.01 1010.30 1010.46
1003.33 1002.23 1001.15 999.92 999.54 999.09 999.43 998.58 997.64 997.97 998.28 998.17 997.82 997.21 997.18 997.47 997.66 997.64 997.75 998.17 998.31 998.82 999.34 999.68 1000.25 1001.16 1001.86 1002.59 1003.29 1003.74 1003.88 1004.00 1004.06 1004.40 1004.51 1005.27 1005.78 1006.41 1006.99 1007.39 1007.81 1007.90 1008.02 1008.49 1008.88 1009.19 1009.25 1009.40 1009.56
1003.71 1002.54 1000.70 999.42 1000.08 998.96 999.66 997.23 997.21 997.81 997.87 997.88 998.07 997.66 997.01 996.80 996.70 996.94 997.38 998.05 998.42 998.81 999.08 999.54 999.92 1000.92 1001.67 1002.29 1002.88 1003.29 1003.61 1003.57 1003.58 1003.68 1003.74 1004.13 1004.87 1005.43 1006.12 1006.57 1007.01 1007.38 1007.67 1007.98 1008.22 1008.42 1008.72 1009.00 1009.21
1003.00 1001.82 1000.86 999.51 999.01 998.75 998.80 997.22 996.82 997.45 997.43 997.39 997.68 997.78 997.23 996.67 996.50 996.39 996.97 997.47 997.92 998.35 998.77 999.47 999.97 1000.66 1001.59 1002.03 1002.38 1002.73 1002.99 1003.04 1002.92 1002.85 1002.97 1003.32 1004.08 1004.67 1005.43 1005.94 1006.43 1006.96 1007.23 1007.56 1007.66 1007.96 1008.42 1008.87 1009.15
1002.09 1000.98 1000.01 998.99 998.73 998.54 997.68 996.75 996.06 996.49 996.85 996.58 996.74 996.97 997.03 996.47 996.27 996.06 996.32 996.57 997.17 997.76 998.41 999.21 999.85 1000.43 1001.08 1001.77 1002.06 1002.14 1002.26 1002.34 1002.30 1002.24 1002.30 1002.59 1003.30 1004.07 1004.84 1005.34 1005.91 1006.33 1006.77 1007.07 1007.30 1007.72 1008.11 1008.51 1008.93
1002.07 1001.41 1000.30 999.48 998.90 998.60 997.66 996.40 995.14 995.27 995.53 995.64 995.83 996.10 996.17 996.06 996.06 995.61 995.85 995.96 996.42 997.00 997.80 998.51 999.37 1000.12 1000.78 1001.40 1001.71 1001.76 1001.71 1001.74 1001.55 1001.59 1001.70 1002.08 1002.67 1003.38 1004.34 1005.02 1005.42 1005.96 1006.28 1006.65 1006.99 1007.49 1008.02 1008.45 1008.75
1002.67 1002.12 1001.16 1000.72 1000.40 999.98 998.51 997.13 995.76 995.03 994.46 994.55 994.70 995.03 995.37 995.39 995.16 995.28 995.41 995.34 995.79 996.42 997.37 998.09 998.77 999.41 1000.03 1000.76 1001.07 1001.13 1001.07 1000.68 1000.45 1000.71 1001.15 1001.70 1002.33 1003.09 1003.85 1004.53 1005.03 1005.53 1005.97 1006.25 1006.61 1007.12 1007.80 1008.28 1008.48
1002.59 1002.29 1001.81 1001.39 1001.13 1000.81 999.57 998.00 996.65 995.40 994.90 994.52 994.35 994.09 994.13 994.61 994.92 995.06 994.78 994.86 995.34 996.04 996.89 997.53 998.27 998.83 999.17 999.96 1000.30 1000.56 1000.72 1000.22 1000.03 1000.17 1000.85 1001.37 1002.15 1002.95 1003.65 1004.30 1004.81 1005.10 1005.59 1005.90 1006.38 1006.93 1007.45 1008.15 1008.35
1002.55 1002.55 1002.00 1001.61 1001.36 1000.63 1000.21 997.96 997.27 995.95 994.97 994.71 994.38 993.87 993.55 993.80 994.30 994.52 994.70 994.68 994.76 995.36 996.04 996.73 997.48 998.01 998.49 999.11 999.55 999.76 1000.02 999.97 999.70 999.78 1000.46 1001.29 1002.06 1002.75 1003.49 1004.07 1004.60 1004.77 1005.15 1005.55 1006.04 1006.65 1007.22 1007.88 1008.27
1002.63 1002.60 1002.33 1002.08 1001.55 1001.07 1000.41 999.33 996.34 996.81 994.84 994.37 993.65 993.41 993.09 993.25 993.58 993.89 994.12 994.47 994.56 994.95 995.47 995.98 996.52 997.16 997.68 998.17 998.80 999.12 999.48 999.39 999.39 999.65 1000.45 1001.16 1002.07 1002.70 1003.37 1003.85 1004.36 1004.78 1004.99 1005.38 1005.73 1006.30 1006.99 1007.45 1008.01
1004.16 1003.67 1002.94 1002.38 1001.84 1000.60 1000.06 999.44 996.82 996.26 995.28 994.32 993.29 992.53 992.31 992.31 992.51 992.73 993.11 993.64 993.97 994.35 994.70 995.11 995.69 996.18 996.69 997.31 997.95 998.55 998.90 999.06 999.14 999.56 1000.60 1001.61 1002.39 1003.03 1003.45 1003.97 1004.32 1004.64 1004.89 1005.12 1005.52 1006.16 1006.81 1007.39 1007.79
1004.21 1004.10 1003.67 1002.56 1001.57 999.92 999.49 998.53 996.93 995.78 995.19 994.24 993.24 992.37 991.72 991.46 991.29 991.51 991.88 992.43 993.07 993.55 993.82 994.35 994.62 995.28 995.90 996.76 997.29 998.07 998.45 998.67 998.94 999.54 1000.56 1001.80 1002.48 1003.24 1003.64 1003.96 1004.23 1004.44 1004.75 1005.03 1005.51 1006.18 1006.71 1007.15 1007.48
1004.18 1006.49 1005.46 1003.43 1002.06 1000.26 999.08 997.77 996.66 996.02 995.37 994.28 993.39 992.63 991.72 991.25 990.69 990.68 990.85 991.21 991.71 992.12 992.64 993.21 993.75 994.62 995.45 996.23 996.86 997.45 998.08 998.37 998.96 999.48 1000.46 1001.50 1002.32 1002.93 1003.24 1003.69 1003.91 1004.19 1004.61 1005.10 1005.57 1006.16 1006.52 1006.81 1007.22
1003.91 1003.94 1005.02 1004.52 1003.40 1002.33 1000.08 998.39 996.99 996.33 995.50 994.74 993.47 992.59 991.46 991.04 990.65 990.26 990.48 990.98 991.26 991.34 991.70 992.50 993.31 994.16 995.03 995.69 996.45 997.01 997.61 998.00 998.68 999.37 1000.36 1001.13 1001.70 1002.28 1002.88 1003.26 1003.57 1004.03 1004.36 1004.90 1005.45 1005.88 1006.35 1006.63 1006.97
1004.40 1003.68 1003.44 1004.51 1004.47 1002.29 1000.44 998.87 997.39 996.57 995.87 995.17 993.93 992.47 991.39 990.41 990.05 990.04 990.22 990.37 990.57 990.94 991.39 992.14 992.88 993.75 994.63 995.42 996.19 996.74 997.22 997.65 998.32 999.04 1000.06 1000.66 1001.26 1001.90 1002.54 1002.98 1003.47 1003.83 1004.21 1004.85 1005.43 1005.84 1006.06 1006.52 1006.98
1003.30 1003.31 1004.21 1005.34 1005.18 1003.38 1000.92 998.83 998.14 999.19 999.81 999.01 995.87 993.00 991.21 990.86 990.36 990.25 990.34 990.27 990.36 990.80 991.61 992.18 992.88 993.62 994.56 995.31 996.07 996.70 997.33 997.75 998.39 999.20 999.84 1000.49 1001.17 1001.87 1002.44 1002.93 1003.32 1003.76 1004.29 1004.76 1005.27 1005.56 1005.99 1006.53 1006.91
1003.01 1003.12 1003.98 1004.02 1004.20 1003.10 1001.37 999.11 999.98 1001.83 1002.06 1001.62 999.29 994.46 992.82 991.13 990.79 990.69 990.73 991.12 990.53 991.10 991.67 992.42 993.12 993.87 994.72 995.42 996.22 996.97 997.54 998.16 998.79 999.45 1000.17 1000.65 1001.36 1001.85 1002.32 1002.78 1003.30 1003.73 1004.09 1004.54 1005.11 1005.63 1005.72 1006.25 1006.66
Wind_Speed
10 11 10 9 7 8 16 20 21 22 10 12 12 1 6 15 22 9 17 18 25 20 19 20 21 19 16 14 13 12 11 11 11 12 12 11 11 12 10 9 7 6 7 6 5 5 5 5 5
9 14 10 7 9 12 14 20 22 19 6 7 6 4 8 1 18 10 12 22 23 18 18 17 20 20 18 15 13 12 12 11 11 12 12 12 11 11 10 9 8 7 6 6 6 6 5 5 4
12 18 8 6 13 16 17 19 16 6 1 7 4 10 11 3 15 13 13 22 22 16 16 17 21 19 19 18 15 14 13 12 11 11 12 11 10 10 10 9 8 8 8 7 7 5 5 4 4
8 6 7 10 19 19 25 25 22 12 12 7 10 8 4 11 7 12 18 23 19 16 15 20 21 19 18 17 16 15 14 13 13 11 11 12 11 11 10 10 10 9 9 8 8 6 6 5 4
8 7 12 14 20 21 23 24 21 9 3 11 11 11 9 7 17 20 18 17 18 17 15 18 20 19 18 18 17 16 15 13 13 13 13 12 11 11 11 11 10 10 10 9 8 6 6 6 5
7 5 11 14 21 21 20 23 24 6 12 13 8 14 12 15 19 15 17 17 16 17 17 16 21 18 17 17 17 16 15 14 13 13 12 13 13 13 12 12 12 11 10 10 9 8 8 7 6
15 12 17 18 17 20 21 19 18 8 14 17 14 15 13 17 18 19 17 17 18 18 16 14 15 16 16 15 15 16 16 15 15 14 13 13 13 14 14 13 13 12 12 10 10 10 10 9 8
14 14 23 19 19 22 18 20 15 17 19 17 20 14 13 14 15 20 17 17 18 19 19 16 14 14 14 12 14 15 15 15 15 15 14 14 14 14 14 13 13 14 13 13 13 13 11 10 10
19 17 18 25 23 18 19 21 22 11 15 18 20 12 10 6 15 15 19 19 18 18 17 18 16 15 14 13 13 13 15 15 15 14 16 13 9 10 12 13 15 15 14 14 14 13 11 11 10
18 18 27 24 22 19 18 19 23 13 19 18 21 7 6 14 20 16 15 17 16 18 18 18 17 17 15 11 13 14 12 10 10 11 12 9 9 8 12 14 17 18 16 14 14 13 12 10 7
22 28 24 27 26 23 26 22 12 16 21 20 17 15 8 8 15 18 17 17 15 15 14 18 17 16 16 11 10 8 8 8 9 13 11 10 8 8 9 7 9 8 14 8 10 9 7 9 7
28 30 28 29 24 26 28 25 17 16 20 24 19 20 8 14 13 16 17 15 13 14 15 16 7 13 14 10 9 10 9 9 8 10 12 9 8 8 7 7 8 9 7 10 8 7 9 10 11
30 29 29 28 26 24 27 29 26 17 20 23 25 21 16 16 8 10 4 5 9 7 14 17 18 11 6 5 4 7 10 10 11 11 13 11 10 9 9 7 7 10 9 10 9 9 10 11 11
22 27 29 28 29 26 28 29 24 26 19 23 24 25 7 7 16 9 7 6 3 5 1 2 17 14 12 8 6 3 5 6 10 10 12 17 12 10 9 9 9 6 11 9 10 9 9 10 10
19 26 26 28 25 27 25 26 30 23 22 24 23 23 20 19 23 18 12 9 6 6 5 3 2 11 11 11 8 5 4 7 5 9 11 18 15 11 13 9 10 10 7 10 10 10 7 5 6
22 24 21 23 27 28 23 28 29 25 19 21 23 23 21 21 20 16 10 7 6 7 5 5 5 10 11 10 7 6 7 6 8 8 7 15 16 14 10 9 9 7 7 6 7 7 5 5 3
16 20 24 26 24 23 27 31 27 23 21 22 21 21 22 20 21 17 17 14 10 9 9 8 5 3 8 7 7 7 8 7 6 6 9 10 16 16 11 8 7 8 7 7 5 4 4 3 4
17 20 20 26 24 25 25 29 28 24 25 23 21 21 22 22 25 18 15 14 10 9 9 8 6 5 6 7 6 7 6 8 7 7 5 8 11 15 12 7 9 7 8 6 4 5 4 4 4
19 21 25 26 26 26 22 25 27 23 25 25 20 19 23 26 22 19 20 13 18 10 10 10 9 7 4 3 4 5 7 6 6 7 7 7 10 12 12 10 7 8 8 7 6 5 6 4 4
20 23 25 24 23 22 24 28 29 21 21 20 21 22 22 20 18 21 17 12 10 12 9 9 9 9 7 6 6 4 6 8 8 6 6 7 9 10 10 10 8 10 6 7 5 6 3 3 5
19 19 21 23 20 20 25 27 26 26 24 19 20 20 21 19 20 18 14 9 6 8 10 11 11 10 9 11 6 5 6 4 3 6 5 5 7 9 10 10 9 8 8 6 5 6 7 6 4
21 20 23 22 19 17 18 19 21 22 24 21 23 23 17 16 17 18 16 12 8 5 6 7 10 11 11 11 9 10 9 7 5 5 6 6 6 8 11 11 11 5 8 6 7 7 6 6 4
24 23 21 22 22 22 22 17 19 22 24 23 20 22 19 16 18 22 19 11 9 9 8 9 10 12 13 12 13 9 9 6 4 4 9 8 5 6 8 7 8 6 6 6 9 7 8 4 3
22 24 25 22 18 18 23 21 21 19 22 25 22 19 22 23 24 19 18 17 14 12 12 9 13 13 13 11 12 10 10 8 6 6 8 5 5 4 5 6 5 6 6 5 8 7 6 5 6
14 16 14 16 15 17 22 22 17 23 23 27 23 21 19 18 16 16 21 20 19 20 18 17 13 12 12 13 11 13 9 12 6 12 9 9 6 5 8 9 8 6 7 6 6 6 6 5 3
9 7 7 13 16 17 20 15 16 20 23 23 23 24 19 14 14 16 11 11 15 13 13 10 8 10 11 11 11 10 11 6 7 10 9 7 7 8 10 10 10 9 7 6 6 5 4 4 4
19 14 13 14 17 18 18 24 19 22 22 22 24 23 17 15 14 10 6 10 12 9 10 10 9 9 10 11 10 10 10 9 11 12 12 10 11 9 11 11 9 8 9 7 6 3 4 6 5
24 19 10 1 7 17 17 21 14 15 16 21 22 20 23 14 9 9 8 7 6 6 8 10 10 11 11 11 10 10 10 8 13 11 13 12 10 11 11 9 8 7 6 7 6 5 6 6 4
11 10 6 8 6 11 15 13 8 22 25 28 28 20 4 8 11 11 7 6 8 8 8 7 8 11 11 11 11 11 9 10 12 12 10 9 10 11 10 9 6 6 6 6 6 3 5 5 6
19 16 13 9 13 14 12 19 16 21 27 31 35 9 15 6 1 8 7 5 4 9 11 8 9 9 9 10 11 12 12 11 11 12 11 10 10 8 8 8 9 8 5 6 5 4 5 6 7
Wind_Direction
247 247 255 259 242 231 251 239 256 269 245 198 252 319 311 22 25 91 125 114 117 132 141 151 153 153 156 154 152 151 148 153 154 147 145 146 147 142 140 140 142 146 145 138 136 141 129 128 117
228 232 240 277 240 245 245 234 244 248 271 126 80 325 306 302 119 118 101 119 121 135 141 151 157 156 156 152 153 150 153 159 156 155 152 155 156 148 152 152 158 163 162 162 169 163 150 140 124
262 257 254 226 236 248 265 251 219 206 203 104 142 214 230 175 131 128 116 113 121 136 146 151 156 160 159 158 158 156 163 161 165 165 162 163 164 158 157 162 172 172 177 182 181 168 159 160 151
241 219 252 265 252 249 248 279 312 158 134 173 202 178 228 65 99 130 130 126 128 136 150 146 156 162 162 163 160 163 167 167 168 173 171 171 170 164 165 172 178 179 186 189 185 184 173 181 172
263 280 240 247 248 256 273 277 288 310 124 202 211 233 221 103 109 137 135 133 140 140 152 150 157 160 165 164 166 169 172 174 175 175 177 174 171 172 171 182 180 184 195 194 190 184 196 199 203
214 241 254 252 253 255 257 265 284 245 287 299 250 216 213 151 130 147 145 147 151 144 142 151 157 164 168 170 171 172 173 177 181 184 185 178 177 176 180 186 185 189 201 198 196 192 205 213 217
245 248 250 256 255 271 280 276 269 267 253 244 244 263 231 144 150 154 163 164 152 148 131 147 162 166 172 174 173 175 177 181 183 185 187 184 186 185 186 190 192 194 200 199 201 202 209 213 229
224 242 255 257 266 271 270 272 260 267 259 256 249 231 230 166 174 156 172 172 163 153 146 150 162 173 177 183 183 181 183 187 185 188 186 190 192 193 192 193 201 201 199 199 204 210 212 217 226
253 249 247 247 250 267 280 290 288 247 262 264 271 265 19 272 154 167 185 183 176 160 158 151 160 170 181 183 186 186 192 193 193 193 193 190 197 197 202 204 205 205 204 204 207 212 215 222 233
235 244 241 246 257 256 264 255 273 270 269 255 244 267 72 103 156 199 192 196 178 156 157 151 155 166 176 193 176 187 193 200 200 200 195 198 203 203 201 202 215 200 204 207 214 216 217 224 235
223 245 248 252 257 255 268 276 265 270 265 254 243 248 182 217 202 211 186 211 179 175 165 155 154 165 173 200 164 179 189 195 202 204 197 195 202 213 203 203 196 192 203 203 212 214 220 219 221
243 240 245 256 265 280 280 287 275 261 273 288 285 235 211 222 227 218 206 207 201 202 72 50 285 166 179 181 162 177 184 186 199 201 197 195 203 205 217 204 188 191 193 203 210 207 208 219 227
253 251 252 251 250 259 273 270 273 257 263 281 287 284 216 215 231 249 237 332 20 67 147 166 174 160 162 178 199 182 188 186 194 191 195 197 197 207 204 207 208 186 197 190 212 203 208 208 223
265 261 262 261 261 255 247 258 260 251 247 265 275 280 217 225 283 253 278 277 358 335 328 163 156 158 161 180 218 214 201 181 184 196 191 199 202 193 207 209 200 201 192 194 201 219 210 205 211
266 273 276 266 264 255 257 257 248 254 252 250 258 266 272 196 210 231 236 240 213 230 257 272 301 156 162 176 183 218 235 214 214 200 193 190 195 204 197 201 218 204 191 202 191 214 221 200 211
279 281 263 250 251 255 260 256 248 252 246 245 254 266 266 267 243 231 222 238 190 212 215 185 220 158 171 176 183 196 218 234 212 227 201 181 192 197 195 204 199 212 215 198 211 186 200 201 190
241 259 262 268 252 248 238 254 249 254 251 243 236 257 266 261 264 225 230 233 218 205 200 187 174 180 169 170 186 201 215 223 227 215 208 184 186 195 194 204 202 192 204 222 197 192 182 194 192
270 259 250 251 256 265 257 241 247 241 250 243 239 228 247 251 251 256 221 219 221 190 152 158 166 180 177 183 203 213 211 223 223 227 230 182 185 183 193 202 200 189 204 211 198 178 200 185 184
291 284 279 282 293 299 290 265 261 238 237 237 239 237 232 250 259 256 242 228 220 169 163 161 168 188 186 221 217 231 224 225 222 209 206 186 176 176 182 197 201 209 203 208 188 174 177 193 230
274 277 278 286 291 291 285 281 280 271 256 243 231 226 239 257 252 242 255 223 192 163 166 169 179 181 186 208 227 234 223 222 211 185 183 179 165 174 175 187 215 197 214 193 199 168 161 204 219
276 272 276 282 290 283 284 280 275 272 277 283 283 265 223 228 255 262 263 234 172 181 181 181 186 189 195 214 231 220 244 258 257 167 169 159 155 164 177 190 212 190 204 192 176 167 181 205 194
278 279 281 282 282 276 277 275 262 269 264 252 257 269 249 232 242 263 267 255 236 202 201 185 184 194 208 206 218 209 218 217 217 165 155 150 166 180 181 182 208 211 184 205 174 174 195 222 182
285 290 281 279 277 281 268 261 268 269 271 257 255 246 254 252 240 237 250 264 268 243 234 222 198 194 203 199 213 212 220 203 198 146 134 150 157 168 169 167 196 174 186 210 172 182 197 169 203
305 294 291 272 270 258 261 259 266 263 262 265 267 257 232 232 241 236 225 234 241 248 246 223 204 206 192 197 192 204 208 216 180 148 131 141 127 134 147 176 193 186 192 220 172 168 156 192 216
266 273 266 250 245 257 253 250 257 267 266 262 267 267 279 274 234 228 225 221 222 226 234 233 200 191 181 185 183 204 233 199 195 139 145 154 149 168 188 190 198 192 193 156 130 153 182 189 196
259 232 263 271 273 279 296 290 294 307 299 284 274 277 262 287 266 236 231 226 220 215 215 207 178 169 167 182 194 191 210 181 137 139 143 156 166 189 182 191 193 186 160 167 158 157 166 166 188
286 258 179 282 283 280 277 285 266 265 270 263 266 253 254 256 255 256 229 235 237 239 185 177 170 166 182 186 180 180 189 188 150 149 158 171 175 179 176 189 166 174 166 153 133 157 193 183 159
281 297 290 169 276 275 257 252 277 262 272 246 258 252 240 233 227 238 243 251 244 220 180 175 173 161 162 167 173 178 173 169 153 157 165 163 158 169 164 162 162 158 151 133 148 216 178 141 146
273 235 295 345 274 280 264 267 276 8 355 329 311 271 144 260 231 232 245 240 226 133 117 132 160 152 152 159 168 153 167 131 132 139 134 136 144 145 155 156 144 156 152 178 176 144 136 150 161
285 301 188 266 283 255 277 272 24 13 349 336 327 69 302 254 77 265 266 274 165 179 144 137 143 129 130 130 129 128 123 126 120 117 130 136 134 147 156 153 172 180 156 163 142 205 215 191 188